Dewpoint
12 13 13 11 8 5 6 6 4 2 2 3 4 2 0 4 2 -1 1 2 1 3 6 8 10 13 37 41 45 51 55 54 55 57 60 60 60 61 59 56 57 59 60 62 63 63 64 63 64 66 66 65 66 66 66 65 65 66 67 67 66 69 70 69 67 67 67 65 68 68 67 68 69 66 66 66 67 67 67 67 67 67 67 67 67 66
13 14 13 10 8 8 8 9 8 3 4 4 3 3 -2 4 2 -0 2 2 2 11 3 8 9 9 22 36 42 43 55 49 52 56 58 59 58 59 59 56 57 58 61 62 62 63 62 63 63 63 64 64 62 65 66 66 67 68 66 66 66 68 68 67 67 67 67 67 67 66 67 69 67 67 64 64 66 67 68 67 66 66 66 65 65 65
15 14 12 13 10 8 8 7 6 6 8 10 8 5 -1 2 1 0 5 6 3 1 5 5 9 10 17 36 43 45 51 52 52 54 58 58 59 59 59 57 57 58 59 62 62 62 62 62 63 64 64 64 64 64 65 66 66 66 65 66 66 68 66 67 66 67 66 67 67 66 69 69 65 66 66 64 65 66 66 67 66 66 65 64 64 63
15 12 12 12 11 6 5 5 6 7 14 15 11 8 2 -0 -1 1 5 6 5 6 5 8 9 12 20 38 47 47 51 49 52 55 57 57 58 59 58 57 57 58 58 59 60 61 62 62 63 63 63 63 64 63 64 65 66 66 65 67 67 67 67 66 65 67 67 66 68 66 69 67 66 65 65 65 65 67 66 65 65 65 65 63 64 63
9 11 11 10 9 5 5 6 8 11 13 16 10 3 -0 -1 -1 4 6 7 4 3 5 5 12 13 23 31 41 50 55 56 56 55 58 59 61 60 59 58 58 59 59 59 60 61 62 62 63 63 63 64 64 63 64 65 66 66 65 67 66 66 67 67 67 67 67 67 68 68 67 66 65 64 63 64 64 64 64 64 65 64 64 63 63 63
8 8 8 8 7 4 6 5 5 8 12 14 11 4 0 1 3 4 5 5 7 7 1 7 10 14 23 30 40 43 49 53 57 56 57 58 59 59 59 58 58 60 60 60 60 61 62 63 63 63 63 63 63 63 66 65 66 66 67 67 66 66 67 66 67 66 66 67 66 66 64 63 64 63 63 63 63 63 64 63 64 65 64 62 63 63
7 8 6 5 6 4 2 2 3 6 11 12 8 6 3 1 1 4 4 4 6 5 3 10 12 14 27 32 44 46 46 52 56 56 56 58 59 58 59 59 59 59 60 61 62 61 61 62 62 62 63 63 63 63 65 66 66 66 67 67 67 67 66 66 66 66 66 66 65 65 64 64 63 63 63 64 64 64 63 64 65 64 64 62 62 63
11 7 5 6 6 3 1 2 2 6 7 4 6 6 7 4 2 5 4 4 6 5 5 8 8 13 25 33 36 41 43 47 49 55 55 56 57 57 58 58 59 59 60 61 62 61 61 62 62 63 63 63 64 64 65 65 66 66 66 66 67 67 67 67 67 66 66 65 65 65 65 64 63 63 63 64 65 64 64 64 63 63 62 63 61 61
16 8 4 4 6 2 0 1 3 4 2 3 7 6 7 8 6 6 5 5 6 4 5 7 6 9 13 27 33 40 38 39 43 50 54 55 55 56 57 58 58 59 60 61 61 61 62 61 63 63 63 63 63 64 64 65 65 66 66 66 67 67 67 67 67 67 67 66 66 65 64 63 63 64 64 63 63 64 64 63 62 62 62 62 62 61
12 8 3 5 5 2 2 1 -1 -0 1 3 4 7 9 8 8 6 4 2 5 10 12 6 5 9 11 19 27 34 35 34 38 45 46 53 55 55 56 58 57 58 60 58 60 60 62 63 64 64 64 64 64 65 65 65 65 66 66 65 66 66 66 66 66 67 67 66 65 64 64 64 63 63 63 64 64 63 62 62 62 61 61 61 61 63
10 15 14 9 7 5 2 -0 -1 -1 0 1 6 6 8 7 8 10 9 6 9 10 11 8 8 8 7 15 25 30 31 34 33 38 43 48 53 52 53 54 58 58 59 57 59 61 63 63 65 65 65 65 65 65 64 64 63 64 64 64 65 65 66 65 65 65 65 64 64 64 64 64 64 64 64 62 62 61 61 60 60 59 60 61 61 61
10 11 14 13 10 4 -0 -1 -1 -0 -0 2 6 8 7 10 9 12 12 10 8 6 10 9 6 5 6 9 18 29 30 29 35 39 41 43 48 48 51 54 56 59 57 58 58 58 62 63 64 64 64 64 64 64 63 63 63 64 65 65 64 64 65 65 65 65 66 64 64 64 64 63 63 63 62 61 60 60 59 59 58 58 58 60 60 60
16 15 16 13 14 2 0 -1 -1 0 -1 1 5 5 8 8 15 9 10 11 8 9 12 7 5 5 5 12 17 24 26 29 30 34 38 39 43 49 48 52 57 58 57 58 59 60 62 62 62 63 64 64 64 64 63 63 63 63 64 64 65 64 64 65 65 65 64 64 63 63 63 62 62 62 61 60 60 59 58 58 58 58 58 59 59 60
14 14 13 10 6 7 2 0 1 1 -0 0 5 7 9 7 9 13 9 10 9 10 8 9 4 2 10 11 12 21 32 30 32 33 36 37 42 46 46 52 56 59 60 59 59 61 61 61 62 63 63 63 63 62 63 63 64 64 64 64 64 64 64 64 65 63 63 63 63 63 63 62 62 61 61 61 60 59 58 59 59 59 58 59 59 60
18 14 12 10 7 6 4 1 2 4 2 -2 2 1 8 11 11 12 8 10 11 10 10 6 6 9 8 11 12 23 26 28 27 28 30 39 41 48 47 53 55 57 57 57 59 59 60 61 62 62 63 63 62 63 63 63 63 63 63 63 63 63 63 64 63 62 62 62 63 63 62 62 62 61 60 60 59 60 59 59 59 59 58 58 59 59
11 15 13 10 7 6 5 4 6 4 -1 -2 0 -1 4 8 13 10 14 12 14 10 12 13 12 11 11 28 19 20 25 27 27 24 28 47 44 46 47 55 55 56 57 58 60 60 61 61 62 62 63 62 62 63 63 63 64 64 63 63 63 62 62 62 62 62 62 62 62 62 62 62 61 60 59 59 59 60 60 59 58 58 59 59 59 59
10 16 14 10 14 10 8 9 8 2 5 3 0 3 0 5 6 15 18 26 24 14 8 14 14 14 15 32 23 25 29 31 33 32 33 46 43 44 48 52 54 56 57 59 60 60 61 62 62 62 62 62 62 62 64 64 63 63 63 63 62 62 62 62 62 62 61 61 61 61 61 61 61 60 59 59 59 59 59 59 58 58 59 59 59 59
16 14 11 13 11 11 11 11 7 3 3 4 3 -1 1 2 6 16 8 15 14 12 13 16 12 12 10 16 24 24 23 26 30 31 35 51 46 45 51 53 54 56 59 60 60 61 61 62 61 62 63 63 62 62 63 64 64 63 63 62 61 61 61 61 61 61 61 60 60 60 59 59 59 59 59 59 59 59 58 57 58 59 58 58 58 57
12 10 12 12 9 10 10 8 6 5 4 1 0 0 0 7 6 9 15 13 13 13 9 11 14 14 8 17 24 25 24 27 27 27 30 43 51 54 54 53 54 57 59 59 61 60 61 61 62 61 62 62 62 61 63 63 63 62 62 62 61 61 61 60 60 60 60 60 59 59 58 59 58 58 58 58 58 58 57 57 58 57 58 58 57 57
17 14 12 12 8 9 8 6 9 7 5 4 2 -1 2 11 15 11 9 15 14 12 14 9 12 13 14 15 21 25 28 28 27 28 29 34 44 54 55 55 56 58 59 59 59 60 61 61 61 61 62 62 62 61 62 62 62 62 61 61 60 60 60 60 60 60 59 59 58 58 58 57 56 57 58 57 57 56 56 56 57 57 57 57 56 56
16 23 13 8 8 9 8 8 7 7 8 5 6 3 1 17 11 10 20 10 11 12 10 10 9 17 22 17 22 27 28 29 30 32 32 35 45 51 53 55 57 57 59 59 59 59 60 61 61 61 62 61 62 62 61 62 61 61 60 60 60 59 59 59 59 58 58 58 58 58 57 57 57 57 57 57 56 56 56 56 56 56 56 56 55 55
15 15 15 12 8 8 6 5 4 6 5 5 8 7 2 9 10 10 11 9 9 10 11 8 11 19 21 16 18 25 29 29 27 32 33 37 45 50 53 56 57 58 59 59 59 59 60 61 61 62 62 61 61 61 61 61 60 60 60 59 59 58 58 58 57 57 57 57 57 56 56 57 57 56 56 56 56 56 55 56 56 56 55 55 54 54
22 22 19 12 8 7 3 4 6 6 6 4 6 8 3 12 12 9 8 11 8 4 1 10 10 14 32 21 22 29 34 30 32 32 37 43 47 51 55 57 59 59 59 58 58 59 60 60 60 61 60 60 60 61 61 60 59 59 59 59 58 57 57 57 56 56 56 56 56 56 56 56 56 56 56 56 56 55 55 55 55 55 55 54 54 53
22 22 13 8 7 6 5 6 8 5 3 3 4 5 3 8 9 12 13 16 10 9 7 9 10 21 39 46 38 34 39 39 39 34 35 45 46 52 55 58 59 59 58 58 58 59 59 61 61 60 60 59 60 60 59 58 58 58 58 57 56 56 56 56 55 55 55 55 55 55 56 56 56 56 56 55 55 55 55 55 55 54 54 54 54 53
19 21 13 9 10 8 7 6 5 3 2 6 8 8 4 5 7 15 12 19 11 11 9 11 12 17 38 47 48 40 37 38 40 38 42 49 52 54 55 57 57 57 57 58 58 59 59 59 58 58 58 58 58 58 58 58 57 57 57 56 55 55 55 55 54 54 54 55 55 55 55 56 55 55 55 55 55 55 55 54 54 53 53 53 53 53
17 20 15 8 9 10 9 8 9 11 8 11 8 3 3 5 14 15 11 11 12 18 8 10 9 32 43 45 44 40 36 37 42 45 46 54 54 52 54 57 57 58 58 58 58 59 58 58 58 58 58 57 57 57 57 57 56 56 56 56 56 54 54 54 54 53 53 54 54 54 55 55 55 54 54 54 54 54 54 54 53 53 53 52 52 52
21 22 19 17 11 10 10 14 12 8 9 9 8 6 4 6 7 16 16 10 8 16 14 15 14 36 40 40 39 37 39 42 44 47 47 49 54 55 56 56 56 57 58 58 58 58 58 58 58 57 57 57 57 56 56 56 55 55 55 55 55 54 53 53 53 52 53 54 54 53 54 54 54 54 54 54 54 54 53 52 53 51 51 51 51 51
20 15 19 24 15 6 8 14 15 9 11 9 11 9 4 5 12 19 15 11 14 17 10 17 19 27 31 30 38 39 40 45 45 47 50 49 52 56 57 58 55 57 58 58 58 58 58 58 57 57 57 56 56 56 55 55 54 54 54 54 53 53 53 53 52 52 52 53 53 53 53 53 54 54 53 53 52 52 53 52 52 51 51 50 51 50
21 15 22 23 18 12 8 11 11 10 10 11 8 11 10 6 14 20 21 16 24 15 10 19 21 21 27 29 35 37 41 45 46 50 53 56 55 56 57 57 57 57 56 57 57 57 58 57 57 56 56 55 55 55 55 54 53 54 53 52 52 52 52 52 52 51 52 52 52 53 53 53 53 53 52 52 52 51 51 51 51 51 50 50 50 50
22 19 22 22 23 26 20 11 11 6 11 8 8 11 10 13 17 18 21 20 20 22 20 20 22 22 20 29 30 36 40 43 47 53 55 55 55 55 55 55 56 57 56 57 57 57 57 57 56 56 55 55 54 54 54 53 54 54 52 52 51 51 51 51 51 51 51 51 51 52 52 52 53 52 52 51 51 51 51 50 51 50 50 49 49 49
22 15 24 24 23 26 26 22 17 13 13 16 10 11 12 14 12 13 20 24 23 22 22 23 25 23 20 31 33 40 42 40 47 52 54 55 55 54 54 55 56 57 56 57 57 56 56 56 55 55 54 54 54 54 54 56 54 54 54 53 50 50 50 50 51 51 50 50 51 51 51 51 51 51 50 51 51 51 49 49 50 50 49 49 49 49
26 19 20 24 19 24 27 26 22 17 16 16 16 16 16 18 19 20 19 24 22 23 25 25 25 23 20 47 45 48 46 45 45 50 53 54 55 55 55 55 57 56 56 56 57 56 56 55 56 57 55 55 55 54 54 55 53 53 52 52 53 54 53 50 50 50 50 50 50 50 50 50 50 49 50 50 49 49 49 49 49 49 49 49 49 48
24 22 18 16 15 19 27 25 25 25 21 16 19 17 20 20 19 21 17 21 24 25 24 20 18 23 31 41 45 47 47 48 48 47 50 53 54 54 55 55 55 55 57 57 55 55 55 55 55 55 55 55 54 53 54 53 50 50 50 50 52 50 51 50 50 49 49 49 49 49 50 49 48 48 48 48 48 48 48 48 48 48 48 48 48 48
23 24 16 21 15 17 25 28 29 24 16 14 33 37 22 22 20 21 20 23 25 25 21 21 20 22 34 37 33 44 47 48 50 51 52 52 53 54 55 54 54 55 58 57 55 54 54 53 53 53 53 53 52 51 51 51 51 50 50 49 49 49 49 49 48 49 49 49 49 49 49 48 47 47 47 48 48 48 47 47 47 48 48 47 47 47
24 21 16 18 14 17 26 28 22 21 19 41 41 41 40 41 26 21 22 19 23 22 25 21 20 33 40 36 36 42 46 49 50 51 50 52 53 53 54 55 55 55 56 56 54 54 53 53 54 53 53 51 51 52 52 50 50 49 48 49 48 48 49 48 47 48 48 48 48 48 48 47 47 47 47 47 47 48 47 47 47 46 46 46 46 45
19 14 16 17 13 19 21 21 21 20 36 40 45 42 43 39 39 33 24 24 21 21 24 23 23 29 37 41 42 44 49 50 50 50 51 53 54 54 55 54 54 55 55 55 54 53 53 53 53 53 53 52 51 51 50 50 49 48 48 48 48 48 48 48 47 47 47 47 47 47 47 47 47 47 47 46 47 47 46 46 46 46 46 45 44 44
23 20 21 15 17 19 20 19 19 34 38 42 37 41 35 26 31 30 25 26 29 27 24 21 24 26 37 44 45 46 49 49 48 48 52 53 54 54 54 54 55 55 55 55 54 53 53 53 54 53 52 52 51 49 50 49 48 48 47 47 47 47 47 48 47 46 47 47 46 46 46 46 46 47 46 46 46 45 46 45 44 44 44 44 44 43
21 19 20 18 18 15 14 17 20 22 23 29 43 43 41 41 34 32 27 25 31 30 29 25 25 26 40 46 46 48 50 46 46 48 50 52 53 54 54 55 55 55 55 54 53 53 54 54 53 52 52 51 51 50 49 48 47 47 47 47 46 46 47 47 47 46 46 46 46 46 46 46 46 46 46 45 44 44 44 44 43 42 42 42 42 40
22 21 21 17 18 17 19 17 18 19 24 41 42 42 43 45 41 38 28 20 23 24 27 28 27 29 41 46 47 49 45 38 39 47 49 51 52 53 54 54 54 54 55 54 53 53 54 53 52 52 51 51 50 50 50 49 48 47 46 46 46 45 45 46 46 46 46 46 46 45 45 45 45 45 45 44 44 44 43 43 42 42 42 40 40 40
23 16 18 15 19 17 18 16 16 22 26 38 41 43 40 41 47 38 20 17 27 26 26 28 29 36 43 47 49 46 39 29 36 46 50 52 52 53 53 53 54 54 54 53 53 53 52 52 51 51 51 50 50 50 49 48 47 47 46 45 45 45 45 46 46 45 46 46 46 45 45 45 45 44 44 43 44 44 42 41 41 41 40 39 37 37
22 18 17 17 14 17 19 14 15 29 37 41 40 41 42 44 40 25 18 32 45 45 37 34 33 39 44 47 48 41 47 49 49 51 51 50 51 52 53 54 53 52 52 52 52 50 52 51 51 50 49 49 50 49 48 47 47 46 46 46 46 46 46 46 46 46 46 45 45 44 44 44 44 44 43 43 42 41 41 40 40 40 39 38 39 39
21 23 19 20 15 13 15 14 15 20 37 39 39 38 42 40 27 20 36 46 47 47 43 38 33 40 46 48 46 43 49 49 50 50 50 50 52 53 53 53 52 52 51 52 51 51 51 50 50 50 50 50 49 48 48 47 46 46 46 46 46 46 45 46 45 46 45 45 44 44 44 44 44 44 43 42 42 42 41 41 41 40 39 38 40 40
18 18 14 14 20 17 16 15 14 17 34 44 41 38 43 36 36 43 46 44 46 48 47 46 45 47 48 48 48 50 49 48 49 49 49 51 53 53 53 53 52 52 51 52 51 51 50 49 49 49 49 49 48 48 47 47 46 46 46 46 46 45 45 46 46 45 45 44 44 44 43 44 44 43 40 42 41 40 40 39 39 39 40 40 40 39
23 16 15 16 19 14 14 16 18 28 37 44 36 29 35 44 46 49 45 45 47 49 47 47 49 50 49 49 49 49 49 48 48 50 51 53 54 53 53 52 52 52 52 51 51 51 50 49 49 49 49 49 48 48 47 46 46 46 45 46 46 46 45 46 45 44 44 44 44 44 42 41 41 42 42 41 40 39 39 39 39 39 39 38 37 35
29 25 33 22 22 18 21 29 36 44 46 48 49 47 48 48 48 49 49 47 48 46 50 47 49 50 49 49 48 48 48 48 47 51 52 53 53 53 52 52 52 51 51 51 50 50 50 48 49 49 48 48 47 47 47 46 46 45 45 46 46 44 44 45 44 44 44 43 42 41 40 40 40 39 39 39 38 37 36 37 37 36 37 37 35 34
38 38 45 41 32 37 41 42 41 38 45 46 46 48 47 47 48 49 48 47 47 49 50 50 49 49 48 49 47 47 47 47 47 50 52 52 52 52 52 51 51 51 50 51 51 50 48 48 48 47 48 46 46 46 47 47 46 45 45 45 46 46 45 44 44 44 43 42 40 38 37 38 39 37 38 37 36 36 35 36 34 34 34 33 33 32
38 34 32 24 35 27 29 39 42 43 44 46 45 46 47 48 48 48 49 48 49 50 49 50 51 50 49 47 47 47 47 46 47 51 50 51 52 51 51 50 50 51 50 50 50 49 48 47 47 47 47 46 46 46 46 47 46 46 45 45 45 45 45 44 44 43 42 40 38 39 38 40 38 36 36 35 33 34 34 33 33 34 32 34 32 32
30 35 32 28 35 29 33 39 42 45 45 46 44 44 46 46 47 48 48 48 49 49 51 49 49 49 48 47 47 46 47 47 47 49 50 50 51 51 50 50 50 51 50 51 52 50 47 47 47 47 46 46 46 46 46 46 46 45 45 45 45 44 44 44 42 41 40 39 38 37 36 36 34 34 33 32 32 31 32 32 33 35 36 35 33 29
41 32 22 29 28 42 38 37 39 45 45 43 44 46 46 46 47 48 47 48 48 48 49 50 49 48 47 46 47 46 46 47 47 49 49 50 51 51 50 50 50 50 50 49 49 49 47 47 47 47 46 46 46 46 46 46 45 45 45 44 44 44 43 42 40 39 39 37 40 36 37 36 35 33 32 36 36 35 35 38 38 38 37 37 36 37
34 28 33 34 28 30 35 37 41 33 36 43 45 45 47 48 48 48 48 48 48 48 47 48 48 49 47 47 46 45 45 46 47 49 49 49 51 50 50 50 50 50 49 48 49 48 47 47 47 46 45 45 46 46 45 45 44 44 41 40 42 42 41 40 38 37 35 36 37 35 34 35 33 33 34 36 34 33 34 32 33 35 34 32 33 34
39 45 42 33 36 32 41 43 43 45 47 46 46 46 47 47 47 47 46 47 47 48 48 48 47 47 46 46 45 46 46 46 48 49 49 49 50 50 50 50 49 48 48 49 48 49 48 47 46 45 45 45 45 44 44 44 43 42 41 41 41 40 39 38 36 35 35 35 34 33 34 33 33 34 36 35 34 33 31 31 32 33 33 34 34 33